Find EZIE-C

NORAD ID: 63249 Int'l Des: 2025-052 Owner: APL/JPL Country: US operational
LEOCIRCULARRETROGRADESSO

实时位置

正在加载3D地球...

关于 EZIE-C

正在加载描述...

即将过境

Passes for default location (London). Set your location on the main map for personalized predictions.

高度历史

Loading altitude history...

两行轨道根数

1 63249U 25052AR 26106.61483023 .00002605 00000-0 23268-3 0 9997
2 63249 97.6943 359.6776 0004544 67.6076 292.5626 14.96782182 59459
Epoch: Apr 16, 2026 • Age: 11 hours

当前状态

高度 577.7 km
速度 7.58 km/s
星下点 26.63°N, 119.46°E
发射日期 Mar 15, 2025
运行时间 1 years
类型 other

技术详情

分类 Payload
质量 10.00 kg
干质量 10.00 kg
总质量 10.00 kg
长度 0.30 m
直径 0.10 m
跨度 0.30 m
形状 Box
制造商 APL
平台类型 Cubesat 6U
阶段状态 In Orbit
所有者/国家 APL/JPL/US

Most Searched